| time (UTC) | temp F | wind direction | speed MPH | gust MPH | rain 1hr in | rain 24hr in | rain mn in | humidity % | barometer mb |
| 20260903174548 | 58 | 360 | 23.0 | 42.0 | 0.00 | 0.00 | 0.00 | 89 | 1006.0 |
| 20260903171555 | 58 | 350 | 31.0 | 49.0 | 0.00 | 0.00 | 0.00 | 90 | 1006.5 |
| 20260903170046 | 58 | 356 | 37.0 | 56.0 | 0.00 | 0.00 | 0.00 | 89 | 1006.1 |
| 20260903164547 | 58 | 351 | 38.0 | 54.0 | 0.00 | 0.00 | 0.00 | 90 | 1006.2 |
| 20260903161541 | 58 | 336 | 28.0 | 41.0 | 0.00 | 0.00 | 0.00 | 90 | 1007.2 |
| 20260903160040 | 58 | 358 | 29.0 | 46.0 | 0.00 | 0.00 | 0.00 | 90 | 1007.5 |
| 20260903154538 | 58 | 351 | 22.0 | 41.0 | 0.00 | 0.00 | 0.00 | 90 | 1007.6 |
| 20260903151512 | 58 | 338 | 28.0 | 37.0 | 0.00 | 0.00 | 0.00 | 91 | 1008.2 |
| 20260903150048 | 58 | 30 | 23.0 | 45.0 | 0.00 | 0.00 | 0.00 | 92 | 1008.3 |
| 20260903144548 | 58 | 349 | 27.0 | 43.0 | 0.00 | 0.00 | 0.00 | 91 | 1008.5 |
| 20260903143048 | 58 | 344 | 26.0 | 37.0 | 0.00 | 0.00 | 0.00 | 91 | 1008.8 |
| 20260903141544 | 58 | 341 | 20.0 | 28.0 | 0.00 | 0.00 | 0.00 | 91 | 1009.4 |
| 20260903140046 | 58 | 338 | 21.0 | 39.0 | 0.00 | 0.00 | 0.00 | 91 | 1009.7 |
| 20260903134548 | 57 | 13 | 18.0 | 26.0 | 0.00 | 0.00 | 0.00 | 90 | 1009.8 |
| 20260903133043 | 57 | 27 | 21.0 | 32.0 | 0.00 | 0.00 | 0.00 | 90 | 1009.9 |
| 20260903131540 | 58 | 22 | 18.0 | 31.0 | 0.00 | 0.00 | 0.00 | 90 | 1010.1 |
| 20260903130050 | 58 | 15 | 16.0 | 27.0 | 0.00 | 0.00 | 0.00 | 91 | 1010.3 |
| 20260903124552 | 58 | 360 | 21.0 | 30.0 | 0.00 | 0.00 | 0.00 | 91 | 1010.5 |
| 20260903123044 | 57 | 2 | 23.0 | 32.0 | 0.00 | 0.00 | 0.00 | 92 | 1010.5 |
| 20260903121539 | 58 | 22 | 22.0 | 35.0 | 0.00 | 0.00 | 0.00 | 92 | 1010.7 |
| 20260903120033 | 58 | 3 | 14.0 | 30.0 | 0.00 | 0.00 | 0.00 | 91 | 1010.4 |
| 20260903114534 | 57 | 26 | 18.0 | 26.0 | 0.00 | 0.00 | 0.00 | 91 | 1011.0 |
| 20260903113030 | 57 | 20 | 20.0 | 34.0 | 0.00 | 0.00 | 0.00 | 92 | 1011.2 |
| 20260903111533 | 57 | 12 | 21.0 | 35.0 | 0.00 | 0.00 | 0.00 | 92 | 1011.1 |
| 20260903110025 | 57 | 2 | 17.0 | 28.0 | 0.00 | 0.00 | 0.00 | 92 | 1011.3 |
| 20260903104522 | 57 | 7 | 20.0 | 34.0 | 0.00 | 0.00 | 0.00 | 92 | 1011.6 |
| 20260903103022 | 57 | 357 | 16.0 | 30.0 | 0.00 | 0.00 | 0.00 | 91 | 1011.7 |
| 20260903101520 | 57 | 12 | 12.0 | 26.0 | 0.00 | 0.00 | 0.00 | 90 | 1011.6 |
| 20260903100017 | 57 | 53 | 18.0 | 32.0 | 0.00 | 0.00 | 0.00 | 91 | 1011.9 |
| 20260903094522 | 58 | 354 | 23.0 | 34.0 | 0.00 | 0.00 | 0.00 | 90 | 1012.0 |
| 20260903093019 | 57 | 12 | 18.0 | 26.0 | 0.00 | 0.00 | 0.00 | 90 | 1012.1 |
| 20260903091515 | 57 | 2 | 20.0 | 31.0 | 0.00 | 0.00 | 0.00 | 90 | 1012.1 |
| 20260903090020 | 57 | 10 | 21.0 | 33.0 | 0.00 | 0.00 | 0.00 | 90 | 1012.0 |
| 20260903084509 | 57 | 353 | 22.0 | 31.0 | 0.00 | 0.00 | 0.00 | 89 | 1012.3 |
| 20260903083046 | 57 | 15 | 18.0 | 32.0 | 0.00 | 0.00 | 0.00 | 90 | 1012.6 |
| 20260903081558 | 57 | 351 | 18.0 | 36.0 | 0.00 | 0.00 | 0.00 | 90 | 1012.9 |
| 20260903080051 | 57 | 337 | 20.0 | 35.0 | 0.00 | 0.00 | 0.00 | 90 | 1012.8 |
| 20260903074602 | 57 | 346 | 24.0 | 37.0 | 0.00 | 0.00 | 0.00 | 89 | 1012.6 |
| 20260903073150 | 57 | 353 | 22.0 | 36.0 | 0.00 | 0.00 | 0.00 | 89 | 1012.5 |
| 20260903071614 | 57 | 12 | 22.0 | 30.0 | 0.00 | 0.00 | 0.00 | 90 | 1012.6 |
| 20260903070049 | 57 | 360 | 19.0 | 29.0 | 0.00 | 0.00 | 0.00 | 89 | 1012.7 |
| 20260903064548 | 57 | 3 | 16.0 | 27.0 | 0.00 | 0.00 | 0.00 | 89 | 1012.8 |
| 20260903063147 | 57 | 327 | 17.0 | 24.0 | 0.00 | 0.00 | 0.00 | 90 | 1013.0 |
| 20260903061546 | 57 | 351 | 16.0 | 28.0 | 0.00 | 0.00 | 0.00 | 90 | 1013.0 |
| 20260903060111 | 57 | 26 | 16.0 | 32.0 | 0.00 | 0.00 | 0.00 | 89 | 1013.0 |
| 20260903054544 | 57 | 24 | 17.0 | 32.0 | 0.00 | 0.00 | 0.00 | 89 | 1013.0 |
| 20260903053144 | 57 | 7 | 18.0 | 29.0 | 0.00 | 0.00 | 0.00 | 88 | 1013.0 |
| 20260903051552 | 57 | 356 | 17.0 | 29.0 | 0.00 | 0.00 | 0.00 | 88 | 1013.1 |
| 20260903050045 | 57 | 346 | 21.0 | 32.0 | 0.00 | 0.00 | 0.00 | 88 | 1013.0 |
| 20260903044547 | 57 | 339 | 22.0 | 33.0 | 0.00 | 0.00 | 0.00 | 87 | 1013.1 |
| 20260903043146 | 57 | 12 | 18.0 | 29.0 | 0.00 | 0.00 | 0.00 | 87 | 1013.0 |
| 20260903041503 | 58 | 339 | 24.0 | 35.0 | 0.00 | 0.00 | 0.00 | 87 | 1013.3 |
| 20260903040050 | 58 | 2 | 24.0 | 38.0 | 0.00 | 0.00 | 0.00 | 85 | 1013.1 |
| 20260903034546 | 58 | 343 | 27.0 | 41.0 | 0.00 | 0.00 | 0.00 | 84 | 1013.0 |
| 20260903033045 | 59 | 355 | 30.0 | 39.0 | 0.00 | 0.00 | 0.00 | 83 | 1013.2 |
| 20260903031543 | 59 | 6 | 23.0 | 42.0 | 0.00 | 0.00 | 0.00 | 82 | 1013.5 |
| 20260903030041 | 59 | 332 | 17.0 | 28.0 | 0.00 | 0.00 | 0.00 | 83 | 1013.9 |
| 20260903024540 | 59 | 346 | 21.0 | 40.0 | 0.00 | 0.00 | 0.00 | 83 | 1014.0 |
| 20260903023052 | 59 | 13 | 22.0 | 35.0 | 0.00 | 0.00 | 0.00 | 83 | 1014.0 |
| 20260903021541 | 59 | 36 | 19.0 | 33.0 | 0.00 | 0.00 | 0.00 | 83 | 1014.1 |
| 20260903020040 | 59 | 7 | 25.0 | 38.0 | 0.00 | 0.00 | 0.00 | 83 | 1014.2 |
| 20260903014546 | 59 | 342 | 25.0 | 36.0 | 0.00 | 0.00 | 0.00 | 83 | 1014.3 |
| 20260903013047 | 59 | 358 | 26.0 | 38.0 | 0.00 | 0.00 | 0.00 | 82 | 1014.5 |
| 20260903011540 | 59 | 6 | 25.0 | 39.0 | 0.00 | 0.00 | 0.00 | 83 | 1014.7 |
| 20260903010045 | 59 | 350 | 24.0 | 37.0 | 0.00 | 0.00 | 0.00 | 82 | 1015.0 |
| 20260903004540 | 59 | 22 | 24.0 | 38.0 | 0.00 | 0.00 | 0.00 | 81 | 1015.0 |
| 20260903003039 | 59 | 25 | 22.0 | 32.0 | 0.00 | 0.00 | 0.00 | 81 | 1015.5 |
| 20260903001536 | 59 | 357 | 20.0 | 35.0 | 0.00 | 0.00 | 0.00 | 82 | 1015.6 |
| 20260903000035 | 59 | 360 | 19.0 | 32.0 | 0.00 | 0.00 | 0.00 | 82 | 1015.6 |
| 20260902234549 | 58 | 21 | 24.0 | 33.0 | 0.00 | 0.00 | 0.00 | 83 | 1015.7 |
| 20260902233037 | 58 | 345 | 17.0 | 26.0 | 0.00 | 0.00 | 0.00 | 84 | 1015.7 |
| 20260902231541 | 58 | 5 | 18.0 | 31.0 | 0.00 | 0.00 | 0.00 | 84 | 1015.6 |
| 20260902230030 | 58 | 351 | 18.0 | 30.0 | 0.00 | 0.00 | 0.00 | 85 | 1015.5 |
| 20260902224530 | 58 | 344 | 15.0 | 31.0 | 0.00 | 0.00 | 0.00 | 85 | 1015.7 |
| 20260902223028 | 58 | 342 | 14.0 | 25.0 | 0.00 | 0.00 | 0.00 | 83 | 1015.8 |
| 20260902221527 | 58 | 6 | 14.0 | 22.0 | 0.00 | 0.00 | 0.00 | 84 | 1015.9 |
| 20260902214519 | 58 | 5 | 15.0 | 26.0 | 0.00 | 0.00 | 0.00 | 86 | 1015.8 |
| 20260902213016 | 57 | 355 | 16.0 | 28.0 | 0.00 | 0.00 | 0.00 | 86 | 1015.8 |
| 20260902210059 | 57 | 356 | 19.0 | 28.0 | 0.00 | 0.00 | 0.00 | 87 | 1015.9 |
| 20260902203005 | 57 | 353 | 17.0 | 28.0 | 0.00 | 0.00 | 0.00 | 88 | 1015.8 |
| 20260902201555 | 57 | 337 | 19.0 | 33.0 | 0.00 | 0.00 | 0.00 | 88 | 1015.6 |
| 20260902200056 | 57 | 358 | 17.0 | 28.0 | 0.00 | 0.00 | 0.00 | 89 | 1015.7 |
| 20260902193010 | 56 | 353 | 19.0 | 30.0 | 0.00 | 0.00 | 0.00 | 89 | 1015.4 |
| 20260902190027 | 56 | 351 | 21.0 | 30.0 | 0.00 | 0.00 | 0.00 | 89 | 1015.2 |
| 20260902184504 | 56 | 8 | 23.0 | 33.0 | 0.00 | 0.00 | 0.00 | 89 | 1015.1 |
| 20260902181505 | 56 | 24 | 16.0 | 21.0 | 0.00 | 0.00 | 0.00 | 89 | 1015.3 |
| 20260902180052 | 56 | 29 | 14.0 | 25.0 | 0.00 | 0.00 | 0.00 | 89 | 1015.4 |